EW4337 Weather Reports


Display with metric or nautical units.
time (UTC)temp
F
wind
direction
speed
MPH
gust
MPH
rain 1hr
in
rain 24hr
in
rain mn
in
humidity
%
barometer
mb
20200714194720 59 293 1.0 7.0 0.00 0.35 0.35 86 1013.7
20200714193704 59 244 2.0 8.0 0.00 0.35 0.35 86 1013.6
20200714192703 60 274 1.0 3.0 0.00 0.35 0.35 91 1013.5
20200714191704 60 261 0.0 0.0 0.00 0.35 0.35 92 1013.5
20200714190704 60 261 0.0 0.0 0.00 0.35 0.35 92 1013.4
20200714185703 60 261 0.0 0.0 0.00 0.35 0.35 93 1013.5
20200714184703 59 261 0.0 0.0 0.00 0.35 0.35 93 1013.5
20200714183703 59 261 0.0 0.0 0.00 0.35 0.35 92 1013.5
20200714182704 59 261 0.0 0.0 0.00 0.35 0.35 92 1013.6
20200714181703 59 261 0.0 0.0 0.00 0.35 0.35 92 1013.5
20200714180704 59 261 0.0 0.0 0.00 0.35 0.35 92 1013.6
20200714175704 59 262 0.0 0.0 0.00 0.35 0.35 92 1013.6
20200714174704 59 261 0.0 1.0 0.00 0.35 0.35 92 1013.7
20200714173703 59 261 0.0 2.0 0.00 0.35 0.35 92 1013.7
20200714172704 59 275 0.0 0.0 0.00 0.35 0.35 92 1013.7
20200714171704 59 275 0.0 0.0 0.00 0.35 0.35 92 1013.7
20200714170703 59 281 0.0 1.0 0.00 0.35 0.35 92 1013.6
20200714165704 59 289 0.0 2.0 0.00 0.35 0.35 92 1013.5
20200714164703 59 262 0.0 3.0 0.00 0.35 0.35 92 1013.6
20200714163704 59 262 0.0 0.0 0.00 0.35 0.35 92 1013.7
20200714162705 59 262 0.0 0.0 0.00 0.35 0.35 91 1013.8
20200714161704 59 262 0.0 3.0 0.00 0.35 0.35 91 1013.8
20200714160704 60 254 1.0 2.0 0.00 0.35 0.35 91 1013.9
20200714155704 60 253 0.0 0.0 0.00 0.35 0.35 89 1013.9
20200714154709 60 120 0.0 0.0 0.00 0.35 0.35 89 1013.8
20200714153704 60 120 0.0 0.0 0.00 0.35 0.35 89 1013.9
20200714152704 60 120 0.0 0.0 0.00 0.35 0.35 88 1013.9
20200714151704 60 119 0.0 0.0 0.00 0.35 0.35 87 1013.9
20200714150704 61 120 0.0 1.0 0.00 0.35 0.35 89 1013.8
20200714145704 60 124 0.0 3.0 0.00 0.35 0.35 89 1013.9
20200714144705 59 85 0.0 1.0 0.00 0.35 0.35 89 1014.1
20200714143704 58 85 0.0 0.0 0.35 0.35 0.35 90 1014.2
20200714142704 58 84 0.0 0.0 0.35 0.35 0.35 91 1014.3
20200714141704 57 38 0.0 0.0 0.35 0.35 0.35 92 1014.4
20200714140704 57 38 0.0 0.0 0.35 0.35 0.35 91 1014.4
20200714135704 57 38 0.0 0.0 0.35 0.35 0.35 91 1014.6
20200714134705 66 38 0.0 2.0 0.35 0.35 0.35 64 1014.5